Location: Newark
(47.5500°N, 8.6167°E)
Time: 00:48:20
(UTC+00:00)

Envisat - Pass Details

Date: 24 January 2020
Orbit: 764 x 766 km, 98.1° (Epoch: 27 February)

Event Time Altitude Azimuth Distance (km) Brightness Sun altitude
Rises 18:05:20 0° 195° (SSW) 3,221 6.5 -18.6°
Reaches altitude 10° 18:07:55 10° 207° (SSW) 2,299 5.9 -19.1°
Maximum altitude 18:12:16 28° 266° (W) 1,400 5.1 -19.8°
Drops below altitude 10° 18:16:39 10° 326° (NW) 2,314 5.8 -20.5°
Sets 18:19:17 0° 337° (NNW) 3,245 6.5 -21.0°
